"Timestamp","TZ","WindDir_Mean (deg)","WindSpd_Mean (km/h)","WindSpd_Min (km/h)","WindSpd_Max (km/h)","Temp_Mean (deg)","RH_Mean (%)","MSLP_Mean (hPa)","Rain_Acc (mm)","Rain_Intensity (mm/h)","Hail_Acc (hits/cm2)","Hail_Intensity (hits/cm2hr)","Solar_Mean (W/m2)"
2022/10/03 00:00:00.009,n,140,0.36,0.36,0.72,14.4,83.3,1019.32,0,0,0,0,0.026093
2022/10/03 00:01:00.001,n,259,2.52,2.16,2.88,14.4,83.1,1019.22,0,0,0,0,0.02697
2022/10/03 00:02:00.001,n,269,3.24,2.52,3.6,14.4,83.1,1019.22,0,0,0,0,0.028725
2022/10/03 00:03:00.002,n,274,2.88,2.52,3.24,14.3,83.1,1019.22,0,0,0,0,0.029602
2022/10/03 00:04:00.004,n,265,3.24,2.88,3.6,14.3,83.1,1019.22,0,0,0,0,0.025253
2022/10/03 00:05:00.007,n,239,1.44,1.08,1.8,14.3,83.1,1019.22,0,0,0,0,0.02697
2022/10/03 00:06:00.009,n,258,2.52,1.8,2.88,14.3,83.3,1019.22,0,0,0,0,0.025253
2022/10/03 00:07:00.007,n,258,2.16,2.16,2.88,14.3,83.4,1019.22,0,0,0,0,0.02697
2022/10/03 00:08:00.008,n,272,3.24,2.52,3.96,14.3,83.6,1019.22,0,0,0,0,0.025253
2022/10/03 00:09:00.010,n,219,2.52,2.16,2.88,14.3,83.7,1019.22,0,0,0,0,0.020905
2022/10/03 00:10:00.001,n,258,2.88,2.16,3.24,14.3,83.7,1019.22,0,0,0,0,0.023499
2022/10/03 00:11:00.001,n,283,0.72,0.36,1.08,14.3,83.6,1019.22,0,0,0,0,0.024376
2022/10/03 00:12:00.002,n,289,1.08,0.72,1.8,14.3,83.6,1019.22,0,0,0,0,0.021744
2022/10/03 00:13:00.007,n,281,3.6,2.16,4.68,14.2,83.8,1019.22,0,0,0,0,0.020905
2022/10/03 00:14:00.008,n,259,1.8,1.44,2.16,14.2,83.9,1019.22,0,0,0,0,0.019112
2022/10/03 00:15:00.004,n,199,1.08,0.72,1.44,14.3,84,1019.22,0,0,0,0,0.016518
2022/10/03 00:16:00.007,n,208,1.08,0,2.16,14.3,84,1019.22,0,0,0,0,0.021744
2022/10/03 00:17:00.009,n,265,2.52,0.72,3.6,14.3,84,1019.22,0,0,0,0,0.017395
2022/10/03 00:18:00.009,n,257,2.16,1.44,2.52,14.2,83.9,1019.22,0,0,0,0,0.018272
2022/10/03 00:19:00.001,n,261,0.72,0.36,0.72,14.2,84,1019.22,0,0,0,0,0.017395
2022/10/03 00:20:00.001,n,275,2.52,2.16,2.88,14.2,83.9,1019.22,0,0,0,0,0.025253
2022/10/03 00:21:00.003,n,265,2.52,2.16,2.88,14.2,84.3,1019.22,0,0,0,0,0.027008
2022/10/03 00:22:00.003,n,189,2.16,1.8,2.52,14.2,84.1,1019.12,0,0,0,0,0.028725
2022/10/03 00:23:00.005,n,260,2.88,2.52,3.24,14.2,84.1,1019.12,0,0,0,0,0.026093
2022/10/03 00:24:00.011,n,269,2.16,2.16,2.52,14.2,84.2,1019.12,0,0,0,0,0.027885
2022/10/03 00:25:00.001,n,131,0.36,0,0.36,14.2,84.1,1019.12,0,0,0,0,0.027885
2022/10/03 00:26:00.003,n,271,5.04,4.68,5.04,14.2,84.3,1019.12,0,0,0,0,0.024376
2022/10/03 00:27:00.017,n,218,1.44,1.08,2.16,14.2,84.2,1019.22,0,0,0,0,0.024376
2022/10/03 00:28:00.002,n,251,1.44,1.08,1.8,14.2,84.3,1019.22,0,0,0,0,0.028725
2022/10/03 00:29:00.001,n,253,2.52,1.8,2.88,14.2,84.4,1019.22,0,0,0,0,0.022659
2022/10/03 00:30:00.002,n,293,1.8,1.44,1.8,14.2,84.5,1019.22,0,0,0,0,0.026093
2022/10/03 00:31:00.003,n,268,1.08,1.08,1.44,14.2,84.5,1019.22,0,0,0,0,0.021744
2022/10/03 00:32:00.005,n,88,0.72,0,1.44,14.2,84.5,1019.22,0,0,0,0,0.024376
2022/10/03 00:33:00.009,n,245,2.88,2.52,3.6,14.2,84.4,1019.22,0,0,0,0,0.020905
2022/10/03 00:34:00.011,n,257,2.52,1.8,2.88,14.1,84.5,1019.22,0,0,0,0,0.020905
2022/10/03 00:35:00.014,n,231,2.88,2.52,3.24,14.1,84.6,1019.22,0,0,0,0,0.021744
2022/10/03 00:36:00.017,n,267,2.52,2.16,2.88,14.1,84.6,1019.22,0,0,0,0,0.020905
2022/10/03 00:37:00.003,n,256,2.16,2.16,2.88,14.1,84.6,1019.22,0,0,0,0,0.024376
2022/10/03 00:38:00.001,n,258,2.16,1.44,2.52,14.1,84.5,1019.22,0,0,0,0,0.017395
2022/10/03 00:39:00.001,n,263,2.88,2.52,2.88,14.1,84.5,1019.22,0,0,0,0,0.01915
2022/10/03 00:40:00.001,n,260,2.16,1.44,2.16,14.1,84.8,1019.22,0,0,0,0,0.018311
2022/10/03 00:41:00.005,n,256,1.8,1.44,1.8,14.1,84.9,1019.22,0,0,0,0,0.01915
2022/10/03 00:42:00.001,n,168,3.24,2.52,3.24,14.1,84.7,1019.32,0,0,0,0,0.020027
2022/10/03 00:43:00.002,n,287,1.44,1.08,1.8,14.1,84.8,1019.22,0,0,0,0,0.018311
2022/10/03 00:44:00.005,n,278,2.16,2.16,2.52,14.1,84.8,1019.22,0,0,0,0,0.016518
2022/10/03 00:45:00.008,n,265,1.44,1.08,1.44,14.1,84.8,1019.32,0,0,0,0,0.020027
2022/10/03 00:46:00.002,n,137,1.8,1.44,1.8,14.1,84.7,1019.32,0,0,0,0,0.016518
2022/10/03 00:47:00.001,n,240,1.08,0.36,1.08,14,84.8,1019.32,0,0,0,0,0.025291
2022/10/03 00:48:00.002,n,192,2.16,1.8,2.52,14,84.8,1019.42,0,0,0,0,0.02964
2022/10/03 00:49:00.005,n,314,1.08,0.72,1.44,14,84.8,1019.42,0,0,0,0,0.031357
2022/10/03 00:50:00.001,n,307,1.44,1.08,2.16,14,84.8,1019.42,0,0,0,0,0.02964
2022/10/03 00:51:00.002,n,286,1.44,0.72,2.16,14,85,1019.42,0,0,0,0,0.026131
2022/10/03 00:52:00.004,n,147,2.52,2.16,2.88,14,85,1019.42,0,0,0,0,0.024376
2022/10/03 00:53:00.005,n,240,2.16,1.44,2.88,14,85,1019.42,0,0,0,0,0.027008
2022/10/03 00:54:00.007,n,257,3.96,3.24,4.32,14,85,1019.32,0,0,0,0,0.028725
2022/10/03 00:55:00.001,n,282,6.12,5.76,7.2,14.1,85.1,1019.42,0,0,0,0,0.027008
2022/10/03 00:56:00.001,n,268,3.6,3.24,3.96,14,84.9,1019.32,0,0,0,0,0.021782
2022/10/03 00:57:00.001,n,272,4.32,3.6,4.68,14,84.9,1019.32,0,0,0,0,0.026131
2022/10/03 00:58:00.005,n,258,7.56,7.56,7.92,14,84.8,1019.32,0,0,0,0,0.022659
2022/10/03 00:59:00.007,n,236,2.88,1.8,3.96,14,84.9,1019.42,0,0,0,0,0.026131
2022/10/03 01:00:00.010,n,273,1.08,0.72,1.44,13.9,84.9,1019.42,0,0,0,0,0.024376
2022/10/03 01:01:00.007,n,285,6.48,5.76,6.84,13.9,84.9,1019.42,0,0,0,0,0.028725
2022/10/03 01:02:00.009,n,282,2.88,1.8,3.6,13.9,84.9,1019.42,0,0,0,0,0.023499
2022/10/03 01:03:00.012,n,308,0.72,0.36,1.44,13.9,85.2,1019.42,0,0,0,0,0.01915
2022/10/03 01:04:00.002,n,293,3.6,2.88,3.96,13.9,85.3,1019.42,0,0,0,0,0.021782
2022/10/03 01:05:00.002,n,291,1.8,1.08,2.16,13.9,85.1,1019.42,0,0,0,0,0.022659
2022/10/03 01:06:00.004,n,181,1.44,0.72,1.8,13.9,84.9,1019.42,0,0,0,0,0.023499
2022/10/03 01:07:00.001,n,225,5.04,4.68,5.4,13.9,84.9,1019.32,0,0,0,0,0.024376
2022/10/03 01:08:00.002,n,267,5.04,3.96,5.76,13.9,84.9,1019.42,0,0,0,0,0.025291
2022/10/03 01:09:00.001,n,199,2.88,2.52,3.6,13.8,85,1019.42,0,0,0,0,0.021782
2022/10/03 01:10:00.002,n,184,2.16,0.72,2.88,13.8,85.2,1019.42,0,0,0,0,0.024376
2022/10/03 01:11:00.005,n,221,0.36,0.36,0.72,13.9,85.2,1019.42,0,0,0,0,0.027885
2022/10/03 01:12:00.008,n,173,1.44,0.36,1.8,13.9,85.2,1019.42,0,0,0,0,0.022659
2022/10/03 01:13:00.001,n,281,3.6,3.24,3.96,13.9,85.4,1019.32,0,0,0,0,0.023499
2022/10/03 01:14:00.001,n,149,0.36,0,0.36,13.9,85.3,1019.32,0,0,0,0,0.024376
2022/10/03 01:15:00.001,n,151,2.88,2.16,3.24,13.9,85.1,1019.32,0,0,0,0,0.022659
2022/10/03 01:16:00.002,n,303,0.72,0.72,1.08,13.9,85.1,1019.32,0,0,0,0,0.021782
2022/10/03 01:17:00.001,n,276,0.72,0,1.44,13.9,85.4,1019.32,0,0,0,0,0.024376
2022/10/03 01:18:00.002,n,190,1.44,1.08,2.16,13.9,85.4,1019.32,0,0,0,0,0.024376
2022/10/03 01:19:00.003,n,248,1.8,1.44,2.16,13.9,85.3,1019.32,0,0,0,0,0.024376
2022/10/03 01:20:00.007,n,277,6.12,5.04,7.56,13.9,85.2,1019.22,0,0,0,0,0.024376
2022/10/03 01:21:00.010,n,209,1.08,0.36,1.44,13.8,85.1,1019.32,0,0,0,0,0.022659
2022/10/03 01:22:00.001,n,6,0.72,0.36,1.08,13.8,85.1,1019.32,0,0,0,0,0.027008
2022/10/03 01:23:00.003,n,247,2.88,0.36,4.32,13.8,85.2,1019.32,0,0,0,0,0.025291
2022/10/03 01:24:00.002,n,295,1.8,1.44,2.88,13.8,85.2,1019.22,0,0,0,0,0.026131
2022/10/03 01:25:00.002,n,261,5.76,3.96,7.56,13.8,85.1,1019.22,0,0,0,0,0.027008
2022/10/03 01:26:00.001,n,262,9.36,7.2,10.440002,13.8,85,1019.22,0,0,0,0,0.02964
2022/10/03 01:27:00.001,n,259,7.92,7.56,8.28,13.8,84.9,1019.22,0,0,0,0,0.028725
2022/10/03 01:28:00.012,n,278,7.2,4.32,8.28,13.8,84.9,1019.22,0,0,0,0,0.026131
2022/10/03 01:29:00.015,n,275,8.64,7.56,9.72,13.7,84.9,1019.12,0,0,0,0,0.028725
2022/10/03 01:30:00.015,n,218,1.8,1.08,2.16,13.7,84.9,1019.22,0,0,0,0,0.027008
2022/10/03 01:31:00.002,n,137,1.44,1.08,1.8,13.7,85.1,1019.22,0,0,0,0,0.028725
2022/10/03 01:32:00.003,n,28,2.52,1.44,3.6,13.7,85.3,1019.22,0,0,0,0,0.026131
2022/10/03 01:33:00.001,n,250,2.88,2.88,3.6,13.8,85.7,1019.22,0,0,0,0,0.027885
2022/10/03 01:34:00.001,n,248,2.16,1.08,2.52,13.8,85.4,1019.22,0,0,0,0,0.028725
2022/10/03 01:35:00.001,n,279,3.6,3.24,3.96,13.7,85.2,1019.22,0,0,0,0,0.023499
2022/10/03 01:36:00.001,n,296,1.44,0.36,2.52,13.7,85.1,1019.22,0,0,0,0,0.026131
2022/10/03 01:37:00.002,n,254,2.88,2.16,3.24,13.6,85.1,1019.22,0,0,0,0,0.020905
2022/10/03 01:38:00.003,n,266,5.4,3.6,6.12,13.6,85,1019.22,0,0,0,0,0.021782
2022/10/03 01:39:00.011,n,276,3.6,1.44,4.68,13.6,85,1019.22,0,0,0,0,0.024376
2022/10/03 01:40:00.001,n,280,2.16,1.44,2.88,13.5,85,1019.22,0,0,0,0,0.022659
2022/10/03 01:41:00.001,n,62,2.52,1.44,4.68,13.5,85.4,1019.22,0,0,0,0,0.026131
2022/10/03 01:42:00.004,n,282,3.24,1.08,4.32,13.6,85.6,1019.22,0,0,0,0,0.023499
2022/10/03 01:43:00.005,n,245,0.72,0.36,1.08,13.6,85.4,1019.22,0,0,0,0,0.021782
2022/10/03 01:44:00.007,n,282,4.68,4.32,4.68,13.5,85.2,1019.12,0,0,0,0,0.025291
2022/10/03 01:45:00.009,n,292,2.16,0.72,3.6,13.5,85.2,1019.22,0,0,0,0,0.023499
2022/10/03 01:46:00.011,n,249,3.6,1.44,6.84,13.5,85.2,1019.12,0,0,0,0,0.021782
2022/10/03 01:47:00.015,n,287,3.6,2.88,5.04,13.4,85.2,1019.12,0,0,0,0,0.024376
2022/10/03 01:48:00.002,n,264,9,8.28,10.08,13.4,85.2,1019.12,0,0,0,0,0.022659
2022/10/03 01:49:00.001,n,255,2.88,1.8,4.68,13.4,85.3,1019.12,0,0,0,0,0.022659
2022/10/03 01:50:00.001,n,279,5.04,4.32,5.76,13.4,85.3,1019.12,0,0,0,0,0.024376
2022/10/03 01:51:00.002,n,294,3.6,3.24,4.68,13.4,85.3,1019.12,0,0,0,0,0.021782
2022/10/03 01:52:00.004,n,265,6.84,6.48,8.28,13.3,85.3,1019.12,0,0,0,0,0.022659
2022/10/03 01:53:00.005,n,258,4.68,4.32,5.04,13.3,85.4,1019.22,0,0,0,0,0.023499
2022/10/03 01:54:00.008,n,264,2.16,1.44,2.52,13.3,85.4,1019.22,0,0,0,0,0.021782
2022/10/03 01:55:00.011,n,283,4.32,3.6,4.68,13.3,85.5,1019.12,0,0,0,0,0.023499
2022/10/03 01:56:00.014,n,272,5.04,4.32,5.76,13.3,85.6,1019.12,0,0,0,0,0.021782
2022/10/03 01:57:00.017,n,251,4.32,3.6,4.68,13.3,85.6,1019.12,0,0,0,0,0.022659
2022/10/03 01:58:00.001,n,269,6.12,5.76,6.48,13.3,85.5,1019.12,0,0,0,0,0.015678
2022/10/03 01:59:00.002,n,254,5.76,5.76,6.12,13.3,85.5,1019.12,0,0,0,0,0.01915
2022/10/03 02:00:00.002,n,272,6.12,4.68,6.84,13.3,85.5,1019.02,0,0,0,0,0.021782
2022/10/03 02:01:00.007,n,278,4.32,3.6,5.04,13.3,85.5,1019.02,0,0,0,0,0.020905
2022/10/03 02:02:00.001,n,240,1.44,1.08,1.8,13.3,85.6,1019.02,0,0,0,0,0.022659
2022/10/03 02:03:00.001,n,234,0.36,0,0.36,13.3,85.6,1019.02,0,0,0,0,0.020905
2022/10/03 02:04:00.004,n,302,1.8,1.08,2.52,13.2,85.6,1019.02,0,0,0,0,0.023499
2022/10/03 02:05:00.007,n,325,1.8,1.44,2.88,13.2,85.8,1019.02,0,0,0,0,0.020905
2022/10/03 02:06:00.009,n,336,1.08,0.36,1.44,13.3,85.8,1019.02,0,0,0,0,0.016556
2022/10/03 02:07:00.001,n,283,5.4,4.68,5.76,13.3,85.8,1019.02,0,0,0,0,0.017433
2022/10/03 02:08:00.001,n,320,2.52,2.16,2.52,13.3,85.8,1019.02,0,0,0,0,0.020027
2022/10/03 02:09:00.001,n,199,1.08,0.72,1.08,13.3,85.9,1019.02,0,0,0,0,0.01915
2022/10/03 02:10:00.003,n,57,1.44,1.08,2.16,13.3,86,1019.02,0,0,0,0,0.015678
2022/10/03 02:11:00.004,n,254,2.52,2.16,2.88,13.3,86.1,1019.02,0,0,0,0,0.02697
2022/10/03 02:12:00.005,n,268,3.24,2.52,3.24,13.3,85.9,1019.02,0,0,0,0,0.029564
2022/10/03 02:13:00.007,n,272,4.32,3.6,5.04,13.3,85.8,1019.02,0,0,0,0,0.028687
2022/10/03 02:14:00.011,n,275,3.24,2.88,3.6,13.2,85.7,1019.02,0,0,0,0,0.030479
2022/10/03 02:15:00.012,n,275,6.12,5.04,7.2,13.2,85.7,1019.02,0,0,0,0,0.028687
2022/10/03 02:16:00.001,n,267,3.6,2.88,4.68,13.2,85.8,1019.02,0,0,0,0,0.02697
2022/10/03 02:17:00.003,n,264,4.68,4.32,5.04,13.2,85.7,1019.02,0,0,0,0,0.027847
2022/10/03 02:18:00.007,n,281,4.68,4.32,5.04,13.2,85.9,1018.92,0,0,0,0,0.024338
2022/10/03 02:19:00.008,n,273,2.16,2.16,2.52,13.2,85.9,1018.92,0,0,0,0,0.027847
2022/10/03 02:20:00.003,n,248,2.52,0.72,3.6,13.1,85.8,1018.92,0,0,0,0,0.026093
2022/10/03 02:21:00.008,n,267,3.24,2.52,4.32,13.1,85.9,1018.92,0,0,0,0,0.027847
2022/10/03 02:22:00.010,n,286,3.96,3.24,4.68,13.1,85.8,1018.92,0,0,0,0,0.025215
2022/10/03 02:23:00.001,n,261,3.6,3.6,3.96,13.1,85.9,1018.92,0,0,0,0,0.029564
2022/10/03 02:24:00.007,n,252,1.44,1.08,1.8,13.1,85.9,1018.92,0,0,0,0,0.025215
2022/10/03 02:25:00.002,n,266,3.24,2.88,3.6,13.1,86,1018.92,0,0,0,0,0.027847
2022/10/03 02:26:00.001,n,252,1.44,0.36,2.52,13.1,86,1018.92,0,0,0,0,0.028687
2022/10/03 02:27:00.002,n,271,2.88,2.52,3.24,13.1,86,1018.92,0,0,0,0,0.022621
2022/10/03 02:28:00.002,n,267,2.52,2.16,2.88,13.1,86,1018.82,0,0,0,0,0.023499
2022/10/03 02:29:00.009,n,284,2.52,1.8,2.88,13.1,86,1018.82,0,0,0,0,0.024338
2022/10/03 02:30:00.001,n,239,2.16,1.8,2.52,13.1,86.1,1018.82,0,0,0,0,0.023499
2022/10/03 02:31:00.002,n,261,1.8,1.44,2.16,13.1,86.1,1018.72,0,0,0,0,0.023499
2022/10/03 02:32:00.003,n,269,1.8,1.08,2.52,13.1,86.2,1018.72,0,0,0,0,0.023499
2022/10/03 02:33:00.007,n,247,1.44,1.08,1.8,13.1,86.1,1018.72,0,0,0,0,0.022621
2022/10/03 02:34:00.001,n,280,1.8,1.08,2.16,13.1,86.2,1018.62,0,0,0,0,0.031357
2022/10/03 02:35:00.001,n,265,2.88,2.52,3.24,13.1,86.1,1018.62,0,0,0,0,0.031357
2022/10/03 02:36:00.001,n,266,0.72,0.36,1.08,13.1,86.1,1018.62,0,0,0,0,0.033073
2022/10/03 02:37:00.003,n,278,2.88,1.8,3.6,13.1,86.1,1018.62,0,0,0,0,0.029602
2022/10/03 02:38:00.008,n,249,3.24,2.88,3.6,13.1,86.1,1018.62,0,0,0,0,0.028725
2022/10/03 02:39:00.012,n,284,2.16,0.72,2.88,13.1,86.1,1018.62,0,0,0,0,0.028725
2022/10/03 02:40:00.013,n,265,4.68,3.96,5.4,13,86,1018.62,0,0,0,0,0.029602
2022/10/03 02:41:00.001,n,263,5.76,5.76,6.12,13,86,1018.62,0,0,0,0,0.029602
2022/10/03 02:42:00.003,n,271,5.04,4.68,5.4,13,86,1018.52,0,0,0,0,0.029602
2022/10/03 02:43:00.001,n,246,6.48,6.12,7.2,13,86,1018.52,0,0,0,0,0.031357
2022/10/03 02:44:00.001,n,262,3.24,2.52,3.6,13,86.1,1018.52,0,0,0,0,0.023537
2022/10/03 02:45:00.001,n,283,3.6,3.24,4.32,13,86.1,1018.52,0,0,0,0,0.027885
2022/10/03 02:46:00.004,n,282,5.04,3.96,5.76,13,86.1,1018.52,0,0,0,0,0.027885
2022/10/03 02:47:00.006,n,280,5.04,4.32,5.76,13,86.1,1018.52,0,0,0,0,0.027885
2022/10/03 02:48:00.009,n,243,3.6,3.24,3.96,13,86.3,1018.52,0,0,0,0,0.027008
2022/10/03 02:49:00.010,n,289,2.88,1.8,3.24,13,86.4,1018.52,0,0,0,0,0.027885
2022/10/03 02:50:00.013,n,281,6.12,5.76,6.84,13,86.3,1018.52,0,0,0,0,0.028725
2022/10/03 02:51:00.015,n,270,6.12,5.76,7.2,13,86.1,1018.52,0,0,0,0,0.029602
2022/10/03 02:52:00.003,n,268,5.4,5.04,5.76,13,86.1,1018.52,0,0,0,0,0.026093
2022/10/03 02:53:00.001,n,273,6.48,6.12,6.48,13,86,1018.52,0,0,0,0,0.027885
2022/10/03 02:54:00.002,n,250,4.32,3.24,5.4,12.9,86,1018.62,0,0,0,0,0.027885
2022/10/03 02:55:00.002,n,266,5.76,5.04,6.12,12.9,86,1018.62,0,0,0,0,0.026093
2022/10/03 02:56:00.004,n,275,3.96,3.6,4.68,12.9,86,1018.62,0,0,0,0,0.025253
2022/10/03 02:57:00.007,n,256,5.04,4.32,6.12,12.9,86,1018.62,0,0,0,0,0.030479
2022/10/03 02:58:00.010,n,246,3.6,2.52,4.68,12.9,86,1018.62,0,0,0,0,0.027885
2022/10/03 02:59:00.011,n,238,7.56,3.96,9.36,12.8,86,1018.62,0,0,0,0,0.023537
2022/10/03 03:00:00.003,n,254,4.32,3.6,5.04,12.8,86,1018.62,0,0,0,0,0.022659
2022/10/03 03:01:00.001,n,271,2.88,2.52,3.24,12.8,86,1018.62,0,0,0,0,0.024376
2022/10/03 03:02:00.001,n,272,6.12,5.76,6.84,12.8,86.1,1018.62,0,0,0,0,0.023537
2022/10/03 03:03:00.002,n,267,4.68,4.32,5.4,12.8,86,1018.62,0,0,0,0,0.021744
2022/10/03 03:04:00.001,n,266,2.52,1.8,3.24,12.8,86,1018.62,0,0,0,0,0.01915
2022/10/03 03:05:00.001,n,273,3.24,2.88,3.6,12.8,86.1,1018.62,0,0,0,0,0.025253
2022/10/03 03:06:00.010,n,223,2.16,1.08,2.52,12.7,86.2,1018.62,0,0,0,0,0.024376
2022/10/03 03:07:00.001,n,306,2.88,1.44,4.32,12.8,86.2,1018.62,0,0,0,0,0.021744
2022/10/03 03:08:00.004,n,206,1.8,1.08,2.52,12.8,86.3,1018.62,0,0,0,0,0.023537
2022/10/03 03:09:00.007,n,284,1.08,0.72,1.44,12.8,86.2,1018.62,0,0,0,0,0.021744
2022/10/03 03:10:00.001,n,250,3.96,3.6,4.68,12.7,86.2,1018.62,0,0,0,0,0.01915
2022/10/03 03:11:00.001,n,275,2.88,2.88,3.24,12.7,86.2,1018.62,0,0,0,0,0.020905
2022/10/03 03:12:00.002,n,255,1.44,0.72,1.8,12.7,86.3,1018.62,0,0,0,0,0.01915
2022/10/03 03:13:00.004,n,203,1.44,0.72,1.8,12.7,86.3,1018.52,0,0,0,0,0.017395
2022/10/03 03:14:00.007,n,213,1.44,0.72,1.8,12.7,86.3,1018.52,0,0,0,0,0.018311
2022/10/03 03:15:00.009,n,255,0.36,0,0.72,12.7,86.3,1018.52,0,0,0,0,0.020027
2022/10/03 03:16:00.012,n,258,1.8,1.44,1.8,12.7,86.3,1018.52,0,0,0,0,0.020905
2022/10/03 03:17:00.001,n,149,1.44,0.72,2.16,12.7,86.3,1018.52,0,0,0,0,0.023537
2022/10/03 03:18:00.011,n,159,3.6,3.24,3.96,12.7,86.4,1018.52,0,0,0,0,0.01915
2022/10/03 03:19:00.002,n,196,3.6,3.6,3.96,12.7,86.5,1018.52,0,0,0,0,0.02697
2022/10/03 03:20:00.003,n,182,3.6,2.88,4.32,12.8,86.5,1018.52,0,0,0,0,0.031319
2022/10/03 03:21:00.004,n,162,2.88,2.52,3.24,12.8,86.6,1018.52,0,0,0,0,0.026093
2022/10/03 03:22:00.007,n,158,5.04,4.68,5.76,12.8,86.6,1018.52,0,0,0,0,0.027847
2022/10/03 03:23:00.004,n,158,3.24,1.08,5.04,12.8,86.6,1018.52,0,0,0,0,0.027847
2022/10/03 03:24:00.007,n,161,3.96,2.52,6.48,12.8,86.6,1018.52,0,0,0,0,0.02697
2022/10/03 03:25:00.013,n,171,7.56,7.2,8.28,12.8,86.6,1018.52,0,0,0,0,0.027847
2022/10/03 03:26:00.013,n,180,8.64,7.92,9.72,12.8,86.5,1018.52,0,0,0,0,0.026093
2022/10/03 03:27:00.016,n,77,1.08,0.36,1.8,12.8,86.5,1018.52,0,0,0,0,0.026093
2022/10/03 03:28:00.001,n,184,5.4,4.32,5.76,12.8,86.5,1018.52,0,0,0,0,0.026093
2022/10/03 03:29:00.001,n,263,3.6,2.88,3.96,12.8,86.5,1018.52,0,0,0,0,0.029602
2022/10/03 03:30:00.004,n,173,1.44,1.08,1.8,12.8,86.5,1018.62,0,0,0,0,0.021744
2022/10/03 03:31:00.005,n,238,3.6,2.88,4.32,12.8,86.6,1018.62,0,0,0,0,0.025253
2022/10/03 03:32:00.006,n,250,2.88,2.52,3.6,12.8,86.5,1018.62,0,0,0,0,0.023499
2022/10/03 03:33:00.002,n,275,3.96,3.24,4.68,12.8,86.5,1018.72,0,0,0,0,0.026093
2022/10/03 03:34:00.003,n,275,5.04,5.04,5.76,12.8,86.4,1018.72,0,0,0,0,0.026093
2022/10/03 03:35:00.002,n,260,4.32,3.6,5.04,12.8,86.4,1018.72,0,0,0,0,0.026093
2022/10/03 03:36:00.003,n,256,4.32,3.96,5.4,12.8,86.3,1018.72,0,0,0,0,0.024376
2022/10/03 03:37:00.002,n,256,6.12,5.76,6.48,12.8,86.4,1018.82,0,0,0,0,0.023499
2022/10/03 03:38:00.001,n,260,6.84,6.12,7.56,12.7,86.3,1018.82,0,0,0,0,0.020905
2022/10/03 03:39:00.001,n,265,5.76,5.4,6.12,12.7,86.3,1018.82,0,0,0,0,0.025253
2022/10/03 03:40:00.001,n,287,5.4,4.68,6.12,12.7,86.3,1018.82,0,0,0,0,0.021744
2022/10/03 03:41:00.007,n,257,4.32,3.6,5.04,12.7,86.3,1018.82,0,0,0,0,0.020905
2022/10/03 03:42:00.010,n,261,4.32,3.96,5.04,12.7,86.3,1018.82,0,0,0,0,0.022621
2022/10/03 03:43:00.011,n,276,3.96,1.08,7.2,12.7,86.2,1018.82,0,0,0,0,0.020905
2022/10/03 03:44:00.012,n,259,7.2,6.84,7.56,12.6,86.2,1018.82,0,0,0,0,0.025253
2022/10/03 03:45:00.007,n,255,5.04,3.6,6.12,12.6,86.1,1018.82,0,0,0,0,0.019112
2022/10/03 03:46:00.001,n,271,3.6,2.52,4.32,12.6,86.1,1018.82,0,0,0,0,0.021744
2022/10/03 03:47:00.002,n,256,4.32,3.6,5.04,12.6,86.2,1018.82,0,0,0,0,0.019112
2022/10/03 03:48:00.001,n,260,3.96,3.24,4.32,12.6,86.2,1018.92,0,0,0,0,0.020027
2022/10/03 03:49:00.002,n,248,3.96,2.52,5.04,12.5,86.2,1018.92,0,0,0,0,0.020905
2022/10/03 03:50:00.009,n,267,7.2,6.48,7.92,12.5,86.2,1018.92,0,0,0,0,0.023499
2022/10/03 03:51:00.010,n,280,0.72,0.72,1.44,12.5,86.2,1018.92,0,0,0,0,0.020905
2022/10/03 03:52:00.006,n,265,3.24,2.52,3.6,12.5,86.3,1019.02,0,0,0,0,0.021744
2022/10/03 03:53:00.010,n,275,5.4,4.68,5.76,12.5,86.4,1019.02,0,0,0,0,0.020905
2022/10/03 03:54:00.012,n,294,4.68,3.96,5.4,12.5,86.3,1019.02,0,0,0,0,0.020027
2022/10/03 03:55:00.001,n,268,7.2,6.12,8.28,12.5,86.4,1019.02,0,0,0,0,0.020905
2022/10/03 03:56:00.003,n,283,3.6,3.24,3.96,12.5,86.3,1019.02,0,0,0,0,0.018272
2022/10/03 03:57:00.003,n,238,1.08,1.08,1.44,12.5,86.5,1019.02,0,0,0,0,0.019112
2022/10/03 03:58:00.004,n,289,2.52,1.44,3.96,12.5,86.4,1019.02,0,0,0,0,0.019112
2022/10/03 03:59:00.002,n,266,3.24,2.16,3.96,12.5,86.3,1019.02,0,0,0,0,0.018272
2022/10/03 04:00:00.003,n,269,2.52,2.52,2.88,12.4,86.4,1019.02,0,0,0,0,0.018272
2022/10/03 04:01:00.005,n,287,2.52,1.08,3.6,12.4,86.4,1019.02,0,0,0,0,0.017395
2022/10/03 04:02:00.002,n,247,4.68,3.6,5.4,12.4,86.5,1019.02,0,0,0,0,0.027885
2022/10/03 04:03:00.006,n,260,5.4,5.04,6.12,12.4,86.5,1019.02,0,0,0,0,0.028763
2022/10/03 04:04:00.001,n,252,4.32,3.6,4.68,12.4,86.5,1019.12,0,0,0,0,0.031357
2022/10/03 04:05:00.001,n,236,5.76,5.04,6.84,12.4,86.5,1019.02,0,0,0,0,0.029602
2022/10/03 04:06:00.001,n,263,5.4,4.32,6.12,12.4,86.5,1019.02,0,0,0,0,0.031357
2022/10/03 04:07:00.002,n,259,2.88,1.08,4.32,12.4,86.5,1019.02,0,0,0,0,0.029602
2022/10/03 04:08:00.003,n,267,5.4,5.04,5.76,12.4,86.5,1019.02,0,0,0,0,0.030518
2022/10/03 04:09:00.001,n,250,2.88,2.16,3.24,12.4,86.5,1019.12,0,0,0,0,0.029602
2022/10/03 04:10:00.010,n,284,2.88,2.52,3.24,12.4,86.5,1019.12,0,0,0,0,0.029602
2022/10/03 04:11:00.015,n,272,3.24,1.8,3.96,12.4,86.5,1019.12,0,0,0,0,0.029602
2022/10/03 04:12:00.002,n,237,2.88,2.16,3.6,12.4,86.5,1019.12,0,0,0,0,0.032234
2022/10/03 04:13:00.001,n,285,1.44,0.36,2.52,12.4,86.5,1019.12,0,0,0,0,0.030518
2022/10/03 04:14:00.002,n,275,2.88,1.8,3.96,12.4,86.4,1019.12,0,0,0,0,0.029602
2022/10/03 04:15:00.004,n,262,4.32,3.96,4.68,12.4,86.5,1019.12,0,0,0,0,0.028763
2022/10/03 04:16:00.006,n,271,6.12,4.32,6.84,12.4,86.5,1019.22,0,0,0,0,0.029602
2022/10/03 04:17:00.007,n,248,5.4,5.04,5.76,12.4,86.5,1019.22,0,0,0,0,0.028763
2022/10/03 04:18:00.001,n,272,3.96,3.24,4.32,12.4,86.5,1019.22,0,0,0,0,0.033951
2022/10/03 04:19:00.010,n,279,5.04,4.68,5.4,12.4,86.5,1019.22,0,0,0,0,0.028763
2022/10/03 04:20:00.013,n,244,6.48,5.76,7.2,12.4,86.6,1019.22,0,0,0,0,0.027885
2022/10/03 04:21:00.015,n,264,5.76,5.4,6.48,12.4,86.4,1019.12,0,0,0,0,0.032234
2022/10/03 04:22:00.002,n,264,5.76,5.4,6.48,12.3,86.3,1019.12,0,0,0,0,0.029602
2022/10/03 04:23:00.004,n,253,3.6,3.24,3.96,12.3,86.3,1019.22,0,0,0,0,0.027885
2022/10/03 04:24:00.001,n,258,4.32,3.6,5.04,12.3,86.3,1019.22,0,0,0,0,0.028763
2022/10/03 04:25:00.002,n,287,3.6,2.88,4.32,12.2,86.2,1019.22,0,0,0,0,0.026169
2022/10/03 04:26:00.001,n,270,5.76,4.32,7.2,12.2,86.1,1019.12,0,0,0,0,0.027885
2022/10/03 04:27:00.004,n,274,4.32,3.6,5.04,12.1,86.1,1019.12,0,0,0,0,0.027885
2022/10/03 04:28:00.005,n,282,4.32,3.96,4.68,12.1,86.2,1019.22,0,0,0,0,0.025253
2022/10/03 04:29:00.006,n,251,2.16,1.8,2.88,12.1,86.3,1019.22,0,0,0,0,0.027885
2022/10/03 04:30:00.010,n,296,3.6,2.88,6.48,12.1,86.5,1019.22,0,0,0,0,0.027008
2022/10/03 04:31:00.001,n,245,2.52,1.8,2.88,12.2,86.6,1019.22,0,0,0,0,0.025253
2022/10/03 04:32:00.003,n,243,4.68,4.32,5.04,12.2,86.5,1019.22,0,0,0,0,0.026169
2022/10/03 04:33:00.005,n,260,5.4,4.68,5.76,12.1,86.5,1019.22,0,0,0,0,0.027008
2022/10/03 04:34:00.005,n,252,4.68,3.6,5.4,12.1,86.5,1019.22,0,0,0,0,0.027885
2022/10/03 04:35:00.002,n,260,5.4,3.6,6.84,12.1,86.4,1019.22,0,0,0,0,0.027008
2022/10/03 04:36:00.006,n,264,3.6,3.24,3.96,12.1,86.4,1019.22,0,0,0,0,0.025253
2022/10/03 04:37:00.002,n,288,2.88,2.16,3.6,12.1,86.4,1019.22,0,0,0,0,0.027885
2022/10/03 04:38:00.003,n,278,2.88,2.52,2.88,12.1,86.6,1019.22,0,0,0,0,0.027008
2022/10/03 04:39:00.013,n,280,4.32,3.6,5.4,12.1,86.6,1019.22,0,0,0,0,0.026169
2022/10/03 04:40:00.001,n,275,2.88,2.16,3.96,12.1,86.7,1019.22,0,0,0,0,0.029602
2022/10/03 04:41:00.001,n,274,4.32,3.6,4.68,12.1,86.7,1019.22,0,0,0,0,0.027008
2022/10/03 04:42:00.001,n,293,2.52,2.16,2.88,12.2,86.8,1019.22,0,0,0,0,0.027008
2022/10/03 04:43:00.007,n,278,3.96,3.6,4.32,12.2,86.8,1019.32,0,0,0,0,0.026169
2022/10/03 04:44:00.001,n,241,2.52,1.8,3.24,12.2,86.7,1019.32,0,0,0,0,0.023537
2022/10/03 04:45:00.003,n,349,0.36,0.36,0.72,12.1,86.7,1019.32,0,0,0,0,0.027008
2022/10/03 04:46:00.007,n,1,1.08,0.72,1.44,12.1,86.8,1019.32,0,0,0,0,0.030518
2022/10/03 04:47:00.002,n,260,1.44,1.08,1.8,12.2,86.8,1019.32,0,0,0,0,0.033112
2022/10/03 04:48:00.012,n,290,4.68,4.68,5.04,12.2,86.9,1019.32,0,0,0,0,0.030518
2022/10/03 04:49:00.004,n,201,1.44,0.72,1.44,12.2,86.9,1019.32,0,0,0,0,0.032234
2022/10/03 04:50:00.002,n,49,0.72,0.36,1.44,12.2,86.9,1019.42,0,0,0,0,0.031357
2022/10/03 04:51:00.001,n,251,0.36,0,0.72,12.2,86.9,1019.42,0,0,0,0,0.033951
2022/10/03 04:52:00.001,n,247,1.8,1.8,2.16,12.2,86.9,1019.42,0,0,0,0,0.033112
2022/10/03 04:53:00.006,n,303,1.08,1.08,1.44,12.3,87,1019.42,0,0,0,0,0.034866
2022/10/03 04:54:00.009,n,256,2.16,1.08,3.24,12.3,87,1019.42,0,0,0,0,0.034866
2022/10/03 04:55:00.002,n,236,0.36,0.36,0.72,12.3,87,1019.42,0,0,0,0,0.039215
2022/10/03 04:56:00.014,n,301,1.08,0,1.44,12.3,87,1019.42,0,0,0,0,0.041809